User: anonymous   Login
Location: Napier
(39.4830°S, 176.9170°E)
Time: 17:34:59
(UTC+13:00)
Language:

Terra - Orbit

View from above orbital plane
View from above orbital plane
View from above satellite
View from above satellite

Ground track
Ground track

The orbit data is extracted from the following two-line orbital elements,

1 25994U 99068A   19080.88309347 -.00000344  00000-0 -66391-4 0  9993
2 25994  98.2102 156.7114 0001564  86.8311 273.3033 14.57107091 24261
Epoch (UTC): 21 March 2019 21:11:39
Eccentricity: 0.0001564
inclination: 98.2102°
perigee height: 701 km
apogee height: 703 km
right ascension of ascending node: 156.7114°
argument of perigee: 86.8311°
revolutions per day: 14.57107091
mean anomaly at epoch: 273.3033°
orbit number at epoch: 2426

The dashed part of the orbit path shows where the satellite is in the earth's shadow,  

DLR